Regional Weather Roundup
Issued by NWS

Home | Current Version | Previous Version | Graphics & Text | Print | Product List | Glossary On
Versions: 1 2 3 4 5 6 7 8 9 10 11 12 13 14 15 16 17 18 19 20 21 22 23 24 25 26 27 28 29 30 31 32 33 34 35 36 37 38 39 40 41 42 43 44 45 46 47 48 49 50
686
ASUS43 KOAX 272002
RWRNE

WEATHER ROUNDUP FOR NEBRASKA
NATIONAL WEATHER SERVICE OMAHA NE
300 PM CDT SAT AUG 27 2016

NOTES: SATELLITE DATA IS BEING USED TO AUGMENT CLOUD COVER ABOVE
       12000 FEET.
       "FAIR" INDICATES FEW OR NO CLOUDS BELOW 12,000 FEET WITH NO
       SIGNIFICANT WEATHER AND/OR OBSTRUCTIONS TO VISIBILITY.

  * THESE STATIONS DO NOT REPORT WEATHER SUCH AS RAIN...SNOW OR FOG.

NEZ001>004-019>022-054>056-272100-
NEBRASKA PANHANDLE

CITY           SKY/WX    TMP DP  RH WIND       PRES   REMARKS
SCOTTSBLUFF    SUNNY     83  43  24 VRB5      30.01F
ALLIANCE       SUNNY     81  48  31 S12G18    30.01F
CHADRON        SUNNY     84  46  26 MISG      29.95F
SIDNEY         SUNNY     79  46  31 VRB3      30.06F
$$

NEZ057>060-069>072-079>082-272100-
SOUTHWEST NEBRASKA

CITY           SKY/WX    TMP DP  RH WIND       PRES   REMARKS
NORTH PLATTE   SUNNY     84  61  45 S12       30.01F
IMPERIAL       SUNNY     79  61  53 S9        30.03F
LEXINGTON      SUNNY     81  60  48 S14       30.02F
MCCOOK         SUNNY     83  63  50 S14       30.01F
$$

NEZ005>010-023>029-035>040-094-272100-
NORTH CENTRAL NEBRASKA

CITY           SKY/WX    TMP DP  RH WIND       PRES   REMARKS
VALENTINE      SUNNY     83  59  44 SW13      29.96F
AINSWORTH      MOSUNNY   82  60  48 SW12G20   29.98F
BROKEN BOW     SUNNY     82  62  50 S13G22    30.01F
O`NEILL        SUNNY     84  55  37 S13G18    29.98F
ORD            SUNNY     81  60  48 SW10      29.99F
THEDFORD       SUNNY     83  60  45 S16G22    30.00F
$$

NEZ041-046>049-061>064-073>077-083>087-272100-
SOUTH CENTRAL NEBRASKA

CITY           SKY/WX    TMP DP  RH WIND       PRES   REMARKS
GRAND ISLAND   SUNNY     83  59  44 SE9       30.02S
AURORA         SUNNY     81  60  48 SE7       30.02F
HASTINGS       SUNNY     83  58  42 S8        30.03F
HEBRON         SUNNY     81  65  59 S7        30.02F
HOLDREGE       SUNNY     80  57  46 S9G20     30.02F
KEARNEY *      SUNNY     82  59  44 S12       30.01F
YORK           SUNNY     81  63  54 S3        30.02F
$$

NEZ011>018-030>034-042>045-272100-
NORTHEAST NEBRASKA

CITY           SKY/WX    TMP DP  RH WIND       PRES   REMARKS
NORFOLK        SUNNY     79  62  56 S7        30.00F
ALBION         SUNNY     78  61  55 S8        30.01F
BLAIR          MOSUNNY   80  64  59 SW6       30.02S
FREMONT        SUNNY     79  65  61 W5        30.02S
TEKAMAH        MOSUNNY   80  65  59 SW5       30.00F
WAYNE          MOSUNNY   76  66  70 SE6       30.02S
$$

NEZ050>053-065>068-078-088>093-272100-
SOUTHEAST NEBRASKA

CITY           SKY/WX    TMP DP  RH WIND       PRES   REMARKS
LINCOLN        SUNNY     84  64  50 S9        30.01F
OMAHA EPPLEY   MOSUNNY   82  64  54 VRB7      30.00F
BEATRICE       SUNNY     81  64  55 S3        30.02F
FALLS CITY     MOSUNNY   83  68  60 SW6       30.00F
NEBRASKA CITY  MOSUNNY   79  67  65 S3        30.02F
PLATTSMOUTH    PTSUNNY   81  67  61 S6        30.01F
$$

NEZ044-045-051>053-067-272100-
OMAHA AREA

CITY           SKY/WX    TMP DP  RH WIND       PRES   REMARKS
OMAHA EPPLEY   MOSUNNY   82  64  54 VRB7      30.00F
BLAIR          MOSUNNY   80  64  59 SW6       30.02S
FREMONT        SUNNY     79  65  61 W5        30.02S
MILLARD        MOSUNNY   81  65  59 SW5       30.01S
OFFUTT AFB     MOSUNNY   80  67  62 SW7       30.00F
PLATTSMOUTH    PTSUNNY   81  67  61 S6        30.01F
WAHOO          FAIR      80  65  60 SW5       30.01F
$$




USA.gov is the U.S. government's official web portal to all federal, state and local government web resources and services.